INTELSAT 39 (IS-39)

Last updated on Tue Sep 22 2026 00:03:15 GMT+0000 (Coordinated Universal Time)

1 44476U 19049B 26264.59237194 .00000030 00000+0 00000+0 0 9999 2 44476 0.0123 228.9674 0001094 245.4656 161.2522 1.00271907 26090
UTC large
Height (km)
Speed (km/s)
/
Latitude / Longitude
Inclination (degrees)
Orbital Period (minutes)
Azimuth
Elevation
Range (km)
Doppler Factor

Next 0 passes for location: London (51.5072 / 0.1276)

No passes found over London.
INTELSAT 39 (IS-39)